• en France
  • Liste des pays
  • À 7 jours
  • Température de l'eau
  • Carte satellitaire
  • Carte météo
  • Widgets météo
  • user-avatar
    Se connecter

    Météo par heure à Pasto

    Ce jour, 24 Mai, Jeudi

    Heure Température Précipitation Vent Pression Humidité
    00:00 +10°C° 0,1 mm 1 m/s 549 mmHg 87%
    01:00 +10°C° 0,1 mm 1 m/s 549 mmHg 87%
    02:00 +10°C° 0,1 mm 1 m/s 549 mmHg 87%
    03:00 +10°C° 0,1 mm 1 m/s 549 mmHg 87%
    04:00 +10°C° 0,1 mm 1 m/s 549 mmHg 87%
    05:00 +10°C° 0,3 mm 1 m/s 549 mmHg 88%
    06:00 +10°C° 0,3 mm 1 m/s 549 mmHg 88%
    07:00 +11°C° 0,3 mm 1 m/s 550 mmHg 88%
    08:00 +11°C° 0,6 mm 1 m/s 550 mmHg 86%
    09:00 +12°C° 0,6 mm 2 m/s 551 mmHg 85%
    10:00 +12°C° 0,6 mm 2 m/s 551 mmHg 83%
    11:00 +12°C° 0,5 mm 2 m/s 551 mmHg 83%
    12:00 +13°C° 0,5 mm 2 m/s 551 mmHg 82%
    13:00 +13°C° 0,5 mm 2 m/s 551 mmHg 82%
    14:00 +13°C° 0,6 mm 2 m/s 550 mmHg 82%
    15:00 +13°C° 0,6 mm 2 m/s 550 mmHg 82%
    16:00 +13°C° 0,6 mm 2 m/s 549 mmHg 83%
    17:00 +12°C° 0,3 mm 1 m/s 549 mmHg 85%
    18:00 +11°C° 0,3 mm 1 m/s 549 mmHg 87%
    19:00 +11°C° 0,3 mm 1 m/s 549 mmHg 89%
    20:00 +11°C° 0,3 mm 1 m/s 549 mmHg 89%
    21:00 +11°C° 0,3 mm 1 m/s 549 mmHg 89%
    22:00 +10°C° 0,3 mm 1 m/s 550 mmHg 89%
    23:00 +10°C° 0,1 mm 1 m/s 549 mmHg 89%

    Demain, 25 Mai, Vendredi

    Heure Température Précipitation Vent Pression Humidité
    00:00 +10°C° 0,1 mm 1 m/s 549 mmHg 89%
    01:00 +10°C° 0,1 mm 1 m/s 549 mmHg 89%
    02:00 +10°C° 0,2 mm 1 m/s 549 mmHg 90%
    03:00 +10°C° 0,2 mm 1 m/s 548 mmHg 90%
    04:00 +10°C° 0,2 mm 1 m/s 548 mmHg 90%
    05:00 +10°C° 0,1 mm 1 m/s 548 mmHg 89%
    06:00 +10°C° 0,1 mm 1 m/s 549 mmHg 89%
    07:00 +11°C° 0,1 mm 1 m/s 549 mmHg 88%
    08:00 +12°C° 0,1 mm 2 m/s 550 mmHg 84%
    09:00 +13°C° 0,1 mm 2 m/s 551 mmHg 81%
    10:00 +14°C° 0,1 mm 2 m/s 552 mmHg 78%
    11:00 +14°C° 0,6 mm 2 m/s 551 mmHg 78%
    12:00 +14°C° 0,6 mm 2 m/s 551 mmHg 78%
    13:00 +14°C° 0,6 mm 2 m/s 550 mmHg 78%
    14:00 +14°C° 0,7 mm 2 m/s 550 mmHg 80%
    15:00 +13°C° 0,7 mm 2 m/s 549 mmHg 81%
    16:00 +13°C° 0,7 mm 2 m/s 549 mmHg 82%
    17:00 +12°C° 0,6 mm 2 m/s 549 mmHg 85%
    18:00 +11°C° 0,6 mm 1 m/s 548 mmHg 88%
    19:00 +11°C° 0,6 mm 1 m/s 548 mmHg 91%
    20:00 +10°C° 0,3 mm 1 m/s 548 mmHg 90%
    21:00 +10°C° 0,3 mm 1 m/s 549 mmHg 89%
    22:00 +10°C° 0,3 mm 1 m/s 549 mmHg 88%
    23:00 +10°C° 0,3 mm 1 m/s 549 mmHg 88%

    Après-demain, 26 Mai, Samedi

    Heure Température Précipitation Vent Pression Humidité
    00:00 +10°C° 0,3 mm 1 m/s 549 mmHg 89%
    01:00 +10°C° 0,3 mm 1 m/s 549 mmHg 89%
    02:00 +10°C° 0,1 mm 1 m/s 548 mmHg 90%
    03:00 +10°C° 0,1 mm 1 m/s 548 mmHg 91%
    04:00 +10°C° 0,1 mm 1 m/s 547 mmHg 92%
    05:00 +10°C° 0,1 mm 1 m/s 548 mmHg 90%
    06:00 +11°C° 0,1 mm 1 m/s 548 mmHg 89%
    07:00 +11°C° 0,1 mm 1 m/s 549 mmHg 87%
    08:00 +12°C° 0,1 mm 2 m/s 550 mmHg 83%
    09:00 +13°C° 0,1 mm 2 m/s 550 mmHg 79%
    10:00 +14°C° 0,1 mm 2 m/s 551 mmHg 75%
    11:00 +14°C° 0,4 mm 2 m/s 551 mmHg 75%
    12:00 +14°C° 0,4 mm 2 m/s 551 mmHg 76%
    13:00 +14°C° 0,4 mm 2 m/s 550 mmHg 76%
    14:00 +14°C° 0,4 mm 2 m/s 550 mmHg 78%
    15:00 +13°C° 0,4 mm 2 m/s 549 mmHg 80%
    16:00 +13°C° 0,4 mm 2 m/s 548 mmHg 82%
    17:00 +12°C° 0,3 mm 2 m/s 548 mmHg 85%
    18:00 +11°C° 0,3 mm 1 m/s 548 mmHg 88%
    19:00 +10°C° 0,3 mm 1 m/s 548 mmHg 91%
    20:00 +10°C° 0,1 mm 1 m/s 548 mmHg 90%
    21:00 +10°C° 0,1 mm 1 m/s 548 mmHg 88%
    22:00 +9°C° 0,1 mm 2 m/s 549 mmHg 87%
    23:00 +10°C° 0,2 mm 1 m/s 548 mmHg 87%

    27 Mai, Dimanche

    Heure Température Précipitation Vent Pression Humidité
    00:00 +10°C° 0,2 mm 1 m/s 548 mmHg 87%
    01:00 +10°C° 0,2 mm 1 m/s 548 mmHg 87%
    02:00 +10°C° 0,3 mm 1 m/s 548 mmHg 88%
    03:00 +10°C° 0,3 mm 1 m/s 548 mmHg 88%
    04:00 +10°C° 0,3 mm 1 m/s 547 mmHg 88%
    05:00 +10°C° 0,1 mm 1 m/s 548 mmHg 87%
    06:00 +10°C° 0,1 mm 1 m/s 548 mmHg 87%
    07:00 +11°C° 0,1 mm 1 m/s 549 mmHg 86%
    08:00 +12°C° 0,1 mm 2 m/s 550 mmHg 82%
    09:00 +13°C° 0,1 mm 2 m/s 551 mmHg 79%
    10:00 +14°C° 0,1 mm 2 m/s 551 mmHg 75%
    11:00 +14°C° 0,2 mm 2 m/s 551 mmHg 77%
    12:00 +14°C° 0,2 mm 2 m/s 550 mmHg 79%
    13:00 +13°C° 0,2 mm 2 m/s 550 mmHg 81%
    14:00 +13°C° 0,3 mm 2 m/s 549 mmHg 81%
    15:00 +14°C° 0,3 mm 2 m/s 549 mmHg 81%
    16:00 +14°C° 0,3 mm 2 m/s 549 mmHg 80%
    17:00 +13°C° 0,2 mm 2 m/s 549 mmHg 84%
    18:00 +12°C° 0,2 mm 1 m/s 548 mmHg 88%
    19:00 +11°C° 0,2 mm 1 m/s 548 mmHg 91%
    20:00 +10°C° 0,2 mm 1 m/s 548 mmHg 90%
    21:00 +10°C° 0,2 mm 1 m/s 549 mmHg 89%
    22:00 +10°C° 0,2 mm 1 m/s 549 mmHg 87%
    23:00 +10°C° 0,3 mm 1 m/s 549 mmHg 86%

    28 Mai, Lundi

    Heure Température Précipitation Vent Pression Humidité
    00:00 +10°C° 0,3 mm 1 m/s 549 mmHg 85%
    01:00 +10°C° 0,3 mm 1 m/s 549 mmHg 84%
    02:00 +10°C° 0,2 mm 1 m/s 549 mmHg 85%
    03:00 +10°C° 0,2 mm 1 m/s 548 mmHg 86%
    04:00 +10°C° 0,2 mm 1 m/s 548 mmHg 86%
    05:00 +10°C° 0,1 mm 1 m/s 549 mmHg 86%
    06:00 +11°C° 0,1 mm 1 m/s 549 mmHg 85%
    07:00 +11°C° 0,1 mm 1 m/s 549 mmHg 85%
    08:00 +13°C° 0 mm 1 m/s 550 mmHg 79%
    09:00 +14°C° 0 mm 2 m/s 551 mmHg 72%
    10:00 +16°C° 0 mm 2 m/s 552 mmHg 66%
    11:00 +15°C° 0,4 mm 2 m/s 552 mmHg 70%
    12:00 +15°C° 0,4 mm 2 m/s 551 mmHg 74%
    13:00 +14°C° 0,4 mm 2 m/s 551 mmHg 78%
    14:00 +14°C° 0,6 mm 2 m/s 550 mmHg 79%
    15:00 +13°C° 0,6 mm 2 m/s 550 mmHg 81%
    16:00 +13°C° 0,6 mm 1 m/s 549 mmHg 83%
    17:00 +12°C° 0,5 mm 1 m/s 549 mmHg 85%
    18:00 +12°C° 0,5 mm 1 m/s 549 mmHg 88%
    19:00 +11°C° 0,5 mm 1 m/s 549 mmHg 91%
    20:00 +11°C° 0,8 mm 1 m/s 549 mmHg 90%
    21:00 +11°C° 0,8 mm 1 m/s 550 mmHg 89%
    22:00 +11°C° 0,8 mm 1 m/s 550 mmHg 88%
    23:00 +11°C° 1 mm 1 m/s 550 mmHg 89%

    29 Mai, Mardi

    Heure Température Précipitation Vent Pression Humidité
    00:00 +9°C° 1 mm 0 m/s 549 mmHg 89%
    01:00 +9°C° 1 mm 0 m/s 549 mmHg 89%
    02:00 +9°C° 0,5 mm 0 m/s 549 mmHg 89%
    03:00 +9°C° 0,5 mm 0 m/s 548 mmHg 89%
    04:00 +9°C° 0,5 mm 0 m/s 548 mmHg 90%
    05:00 +10°C° 0,4 mm 1 m/s 548 mmHg 89%
    06:00 +10°C° 0,4 mm 1 m/s 549 mmHg 88%
    07:00 +11°C° 0,4 mm 1 m/s 549 mmHg 88%
    08:00 +11°C° 0,2 mm 1 m/s 550 mmHg 86%
    09:00 +12°C° 0,2 mm 1 m/s 550 mmHg 84%
    10:00 +13°C° 0,2 mm 1 m/s 551 mmHg 81%
    11:00 +13°C° 0,2 mm 1 m/s 551 mmHg 81%
    12:00 +14°C° 0,2 mm 2 m/s 551 mmHg 80%
    13:00 +14°C° 0,2 mm 2 m/s 550 mmHg 80%
    14:00 +14°C° 0,4 mm 2 m/s 550 mmHg 80%
    15:00 +14°C° 0,4 mm 1 m/s 549 mmHg 81%
    16:00 +14°C° 0,4 mm 1 m/s 549 mmHg 81%
    17:00 +13°C° 0,4 mm 1 m/s 549 mmHg 85%
    18:00 +12°C° 0,4 mm 1 m/s 549 mmHg 89%
    19:00 +11°C° 0,4 mm 1 m/s 548 mmHg 93%
    20:00 +11°C° 0,1 mm 1 m/s 549 mmHg 93%
    21:00 +11°C° 0,1 mm 1 m/s 549 mmHg 92%
    22:00 +10°C° 0,1 mm 1 m/s 549 mmHg 92%
    23:00 +10°C° 0,3 mm 1 m/s 549 mmHg 91%
    Voir plus